This demonstration page uses our WeatherBlox Daily Observations layout. Learn more.

Left ArrowRight Arrow

39.51506, -84.39828

Hourly Observations for April 22, 2016

Temp ( °F °C ) Dew Point ( °F °C ) Humidity (%) Winds ( mph kmh ) Pressure ( in mb ) Visibility ( mi km ) Precip ( " mm )
12:15 am 00:15 Clear 57 13.8 51 10.7 82 82 undefined N/A 29.91 1013 10 16 N/A
12:35 am 00:35 Partly Cloudy 61 16 51 10.6 71 71 undefined N/A 29.88 1012 10 16 N/A
12:55 am 00:55 Partly Cloudy 59 15.2 52 11.2 77 77 undefined N/A 29.85 1011 10 16 N/A
1:15 am 01:15 Mostly Cloudy 57 13.8 50 10.1 79 79 SSW 3 6 29.91 1013 10 16 N/A
1:35 am 01:35 Mostly Cloudy 57 13.8 51 10.3 80 80 S 3 6 29.91 1013 10 16 N/A
1:55 am 01:55 Mostly Cloudy 57 13.8 51 10.5 81 81 N N/A 29.91 1013 10 16 N/A
2:15 am 02:15 Cloudy 57 13.8 51 10.5 81 81 N N/A 29.91 1013 10 16 N/A
2:35 am 02:35 Cloudy 58 14.6 52 11 79 79 undefined N/A 29.88 1012 10 16 N/A
2:55 am 02:55 Cloudy 60 15.7 51 10.5 71 71 undefined N/A 29.85 1011 10 16 N/A
3:15 am 03:15 Cloudy 60 15.3 51 10.3 72 72 undefined N/A 29.85 1011 10 16 N/A
3:35 am 03:35 Mostly Cloudy 60 15.3 52 10.9 75 75 undefined N/A 29.85 1011 10 16 N/A
3:55 am 03:55 Partly Cloudy 60 15.3 52 11.1 76 76 undefined N/A 29.85 1011 10 16 N/A
4:15 am 04:15 Mostly Cloudy 60 15.3 52 11 76 76 undefined N/A 29.85 1011 10 16 N/A
4:35 am 04:35 Mostly Cloudy 60 15.3 52 11 76 76 undefined N/A 29.83 1010 10 16 N/A
4:55 am 04:55 Partly Cloudy 60 15.3 52 11 76 76 undefined N/A 29.85 1011 10 16 N/A
5:15 am 05:15 Mostly Cloudy 60 15.3 52 11.2 77 77 undefined N/A 29.83 1010 10 16 N/A
5:35 am 05:35 Cloudy 60 15.3 52 11.1 76 76 undefined N/A 29.83 1010 10 16 N/A
5:55 am 05:55 Mostly Cloudy with Drizzle 60 15.3 52 11.1 76 76 undefined N/A 29.83 1010 10 16 N/A
6:15 am 06:15 Partly Cloudy 58 14.6 51 10.7 78 78 SSW 5 7 29.85 1011 10 16 N/A
6:35 am 06:35 Partly Cloudy 57 13.8 50 10.1 79 79 SW 5 7 29.88 1012 10 16 N/A
6:55 am 06:55 Sunny 57 13.8 50 10.2 79 79 SW 3 6 29.88 1012 10 16 N/A
7:15 am 07:15 Sunny 57 13.8 51 10.5 81 81 SSW 5 7 29.88 1012 10 16 N/A
7:35 am 07:35 Partly Cloudy 57 13.8 51 10.5 81 81 undefined N/A 29.91 1013 10 16 N/A
7:55 am 07:55 Partly Cloudy 57 13.8 51 10.5 81 81 undefined N/A 29.91 1013 10 16 N/A
8:15 am 08:15 Partly Cloudy 59 15 52 11.3 79 79 SW 5 7 29.88 1012 10 16 N/A
8:35 am 08:35 Sunny 60 15.3 53 11.5 78 78 undefined N/A 29.88 1012 10 16 N/A
8:55 am 08:55 Partly Cloudy 58 14.4 51 10.7 79 79 SSW 7 11 29.88 1012 10 16 N/A
9:15 am 09:15 Partly Cloudy 61 16 52 11.3 74 74 SW 6 9 29.88 1012 10 16 N/A
9:35 am 09:35 Mostly Cloudy 63 17.1 51 10.5 65 65 SSW 8 13 29.88 1012 10 16 N/A
9:55 am 09:55 Cloudy 63 17.3 51 10.3 64 64 W 9 15 29.88 1012 10 16 N/A
10:15 am 10:15 Mostly Cloudy 62 16.8 51 10.3 66 66 NNW 9 15 29.91 1013 10 16 N/A
10:35 am 10:35 Partly Cloudy 64 17.8 51 10.3 62 62 undefined N/A 29.91 1013 10 16 N/A
10:55 am 10:55 Mostly Cloudy 63 17.1 49 9.5 61 61 NNW 7 11 29.91 1013 10 16 N/A
11:15 am 11:15 Cloudy 64 17.8 50 10.2 61 61 undefined N/A 29.91 1013 10 16 N/A
11:35 am 11:35 Mostly Cloudy 64 18 49 9.6 58 58 undefined N/A 29.91 1013 10 16 N/A
11:55 am 11:55 Cloudy 63 17.3 49 9.2 59 59 undefined N/A 29.91 1013 10 16 N/A
12:15 pm 12:15 Mostly Cloudy 68 20.1 49 9.7 51 51 undefined N/A 29.91 1013 10 16 N/A
12:35 pm 12:35 Mostly Cloudy 67 19.5 49 9.4 52 52 undefined N/A 29.91 1013 10 16 N/A
12:55 pm 12:55 Cloudy 68 20.2 50 9.9 52 52 undefined N/A 29.91 1013 10 16 N/A
1:15 pm 13:15 Cloudy 69 20.8 50 10.1 51 51 undefined N/A 29.91 1013 10 16 N/A
1:35 pm 13:35 Cloudy 69 20.8 49 9.7 49 49 NNW 6 9 29.91 1013 10 16 N/A
1:55 pm 13:55 Mostly Cloudy 69 20.8 49 9.6 49 49 undefined N/A 29.91 1013 10 16 N/A
2:15 pm 14:15 Mostly Cloudy 69 20.8 48 8.9 47 47 NNW 7 11 29.91 1013 10 16 N/A
2:35 pm 14:35 Mostly Cloudy 69 20.8 48 8.7 46 46 undefined N/A 29.91 1013 10 16 N/A
2:55 pm 14:55 Cloudy with Light Rain 67 19.5 51 10.3 55 55 SSW 5 7 29.91 1013 7 11 N/A
3:15 pm 15:15 Partly Cloudy 69 20.8 51 10.6 52 52 undefined N/A 29.88 1012 10 16 N/A
3:35 pm 15:35 Partly Cloudy 69 20.8 49 9.3 48 48 SSW 3 6 29.88 1012 10 16 N/A
3:55 pm 15:55 Partly Cloudy 69 20.8 49 9.6 49 49 undefined N/A 29.88 1012 10 16 N/A
4:15 pm 16:15 Partly Cloudy 69 20.8 48 8.7 46 46 W 6 9 29.88 1012 10 16 N/A
4:35 pm 16:35 Partly Cloudy 69 20.8 46 7.8 43 43 undefined N/A 29.88 1012 10 16 N/A
4:55 pm 16:55 Mostly Cloudy with Drizzle 67 19.4 47 8.6 50 50 NNW 7 11 29.88 1012 10 16 N/A
5:15 pm 17:15 Mostly Cloudy with Light Rain 64 17.9 47 8.2 53 53 undefined N/A 29.91 1013 10 16 N/A
5:35 pm 17:35 Cloudy with Light Rain 60 15.3 50 9.9 70 70 undefined N/A 29.91 1013 7 11 N/A
5:55 pm 17:55 Cloudy with Drizzle 60 15.3 52 11 76 76 undefined N/A 29.91 1013 10 16 N/A
6:15 pm 18:15 Partly Cloudy 61 16 53 11.5 75 75 undefined N/A 29.91 1013 10 16 N/A
6:35 pm 18:35 Mostly Cloudy 61 16 52 11.1 73 73 undefined N/A 29.91 1013 10 16 N/A
6:55 pm 18:55 Cloudy 62 16.6 51 10.8 69 69 undefined N/A 29.91 1013 10 16 N/A
7:15 pm 19:15 Mostly Cloudy 62 16.6 52 10.9 69 69 undefined N/A 29.91 1013 10 16 N/A
7:35 pm 19:35 Cloudy 62 16.6 51 10.4 67 67 undefined N/A 29.94 1014 10 16 N/A
7:55 pm 19:55 Cloudy with Drizzle 62 16.5 51 10.6 68 68 undefined N/A 29.94 1014 10 16 N/A
8:15 pm 20:15 Cloudy 61 16 51 10.3 69 69 undefined N/A 29.94 1014 10 16 N/A
8:35 pm 20:35 Cloudy 61 16 51 10.3 69 69 undefined N/A 29.94 1014 10 16 N/A
8:55 pm 20:55 Cloudy 61 16 50 10.1 68 68 undefined N/A 29.94 1014 10 16 N/A
9:15 pm 21:15 Cloudy 61 16 50 10 68 68 undefined N/A 29.94 1014 10 16 N/A
9:35 pm 21:35 Cloudy 61 16 49 9.5 66 66 undefined N/A 29.97 1015 10 16 N/A
9:55 pm 21:55 Cloudy 60 15.6 50 10.1 70 70 undefined N/A 29.97 1015 10 16 N/A
10:15 pm 22:15 Cloudy 60 15.3 51 10.5 73 73 undefined N/A 29.97 1015 10 16 N/A
10:35 pm 22:35 Cloudy 60 15.3 52 11.1 76 76 undefined N/A 30.03 1017 10 16 N/A
10:55 pm 22:55 Cloudy 60 15.3 51 10.8 75 75 undefined N/A 30.03 1017 10 16 N/A
11:15 pm 23:15 Cloudy 60 15.3 51 10.3 72 72 undefined N/A 30.03 1017 10 16 N/A
11:35 pm 23:35 Mostly Cloudy 60 15.3 50 10.1 71 71 undefined N/A 30.03 1017 10 16 N/A
11:55 pm 23:55 Mostly Cloudy 58 14.5 49 9.4 72 72 undefined N/A 30.03 1017 10 16 N/A

Powered by AerisWeather